Overview Statistics Trail Chart Weather Telemetry Raw packets
 

This is the latest recevied weather packets stored in our database for station/object W4UWO. If no packets are shown the sender has not sent any weather packets the latest 10 day(s).

<< 107 108 109 110 111 112 113 >>
Time Temp. Humidity Pressure Rain* Wind** Luminosity Snow
1787812342 20.56° C 95% 1016.9 hPa 0 mm - 0 W/m² -
1787812037 20.56° C 95% 1016.9 hPa 0 mm - 0 W/m² -
1787811732 20.56° C 95% 1016.7 hPa 0 mm - 0 W/m² -
1787811432 20.56° C 95% 1016.9 hPa 0 mm - 0 W/m² -
1787811127 20.56° C 95% 1016.8 hPa 0 mm - 0 W/m² -
1787810822 20.56° C 94% 1016.7 hPa 0 mm - 0 W/m² -
1787810517 20.56° C 94% 1016.8 hPa 0 mm - 0 W/m² -
1787810215 21.11° C 94% 1016.5 hPa 0 mm - 0 W/m² -
1787809912 21.11° C 93% 1016.5 hPa 0 mm - 0 W/m² -
1787809611 21.67° C 93% 1016.7 hPa 0 mm - 0 W/m² -
1787809308 21.67° C 93% 1016.6 hPa 0 mm - 0 W/m² -
1787809004 21.11° C 95% 1016.2 hPa 0 mm - 0 W/m² -
1787808699 20.56° C 95% 1016.6 hPa 0 mm - 0 W/m² -
1787808399 20.56° C 94% 1016.6 hPa 0 mm - 0 W/m² -
1787808098 20.56° C 94% 1016.4 hPa 0 mm - 0 W/m² -
1787807797 21.11° C 93% 1016.2 hPa 0 mm - 0 W/m² -
1787807492 21.11° C 93% 1016.2 hPa 0 mm - 0 W/m² -
1787807191 21.67° C 93% 1016.2 hPa 0 mm - 0 W/m² -
1787806888 21.67° C 92% 1016.2 hPa 0 mm - 0 W/m² -
1787806587 21.67° C 92% 1016 hPa 0 mm - 0 W/m² -
1787806286 22.22° C 91% 1016.6 hPa 0 mm - 0 W/m² -
1787805981 21.67° C 93% 1016.6 hPa 0 mm - 0 W/m² -
1787805677 21.67° C 93% 1016.4 hPa 0 mm - 0 W/m² -
1787805373 21.67° C 93% 1016.7 hPa 0 mm - 0 W/m² -
1787805067 21.67° C 93% 1016.6 hPa 0 mm - 0 W/m² -

* Rain latest hour (hover to see other rain measurements)
** Current wind speed in m/s (hover to see current wind gust speed)